Location: Be?i?
(36.9044°N, 30.1006°E)
Time: 12:09:44
(UTC+00:00)

Cosmos 2219 Rocket - Pass Details

Date: 05 August 2024
Orbit: 826 x 847 km, 71.0° (Epoch: 08 September)

Event Time Altitude Azimuth Distance (km) Brightness Sun altitude
Exits shadow 23:32:36 41° 75° (ENE) 1,213 3.2 -32.7°
Drops below altitude 10° 23:36:53 10° 35° (NE) 2,471 5.5 -32.3°
Sets 23:39:25 0° 29° (NNE) 3,411 6.5 -32.1°
